Flag for U.S.A. Weather past 2 weeks in Bismarck, North Dakota, U.S.A.

Now
48 °F

Fog.


Feels Like: 48 °F
Forecast: 49 / 73 °F
Wind: No wind

Location: Bismarck Municipal Airport

Current Time: Aug 30, 2014 at 5:36:20 AM

Latest Report: Aug 30, 2014 at 5:01 AM


Visibility: 3 mi

Pressure: 29.99 "Hg

Humidity: 100%

Dew point: 48 °F

Location of BismarckLocation

Historic Weather in Bismarck — Graph

°F

Bismarck temperature yesterday

Maximum temperature yesterday: 75 °F (at 10:52 AM)
Minimum temperature yesterday: 56 °F (at 11:52 PM)
Average temperature yesterday: 65 °F

Past Weeks' High & Low Weather Summary

 TemperatureHumidityPressure
High87 °F (Aug 17, 3:52 PM)100% (Aug 22, 7:52 AM)30.23 "Hg (Aug 22, 7:52 AM)
Low44 °F (Aug 26, 6:52 AM)39% (Aug 19, 4:52 PM)29.64 "Hg (Aug 24, 2:52 AM)
Average67 °F81%29.89 "Hg
* Reported Aug 15 3:52 AM — Aug 30 3:52 AM, Bismarck, Weather by CustomWeather, © 2014

Note: Actual official high and low records may vary slightly from our data, if they occured in-between our weather recording intervals... More about our weather records

Advertising

Bismarck weather history for previous 24 hours

 ConditionsComfort  
Time TempWeatherWind HumidityBarometerVisibility
3:52 AM
Aug 30
49 °FClear.No wind100%30.00 "Hg8 mi
2:54 AM48 °FFog.5 mph96%30.00 "Hg2 mi
1:52 AM52 °FClear.No wind97%29.99 "Hg10 mi
12:52 AM53 °FClear.No wind93%29.98 "Hg10 mi
11:52 PM
Aug 29
56 °FClear.No wind90%29.98 "Hg10 mi
10:52 PM57 °FClear.5 mph87%29.97 "Hg10 mi
9:52 PM59 °FClear.5 mph87%29.97 "Hg10 mi
8:52 PM64 °FSunny.8 mph70%29.95 "Hg10 mi
7:52 PM68 °FPartly sunny.7 mph65%29.93 "Hg10 mi
6:52 PM68 °FOvercast.10 mph68%29.93 "Hg10 mi
5:52 PM69 °FOvercast.13 mph66%29.92 "Hg10 mi
4:52 PM71 °FOvercast.10 mph61%29.90 "Hg10 mi
3:52 PM70 °FOvercast.20 mph66%29.89 "Hg10 mi
1:52 PM70 °FMostly cloudy.17 mph71%29.88 "Hg10 mi
12:52 PM68 °FBroken clouds.13 mph78%29.86 "Hg10 mi
11:52 AM70 °FPartly sunny.16 mph68%29.87 "Hg10 mi
10:52 AM75 °FPassing clouds.16 mph60%29.84 "Hg10 mi
9:52 AM69 °FScattered clouds.13 mph76%29.84 "Hg10 mi
8:52 AM65 °FSunny.7 mph87%29.81 "Hg10 mi
8:03 AM66 °FScattered clouds.6 mph90%29.81 "Hg10 mi
6:52 AM64 °FFog.7 mph97%29.80 "Hg3 mi
6:04 AM64 °FFog.7 mph97%29.79 "Hg5 mi
5:52 AM64 °FFog.9 mph97%29.77 "Hg2 mi
Weather by CustomWeather, © 2014

See weather overviewHow to use our weather pages